• In Kazakhstan
  • List of Countries
  • For 7 days
  • Water Temperature
  • Weather Map
  • News
  • Weather Widgets
  • user-avatar
    Login

    Hourly Weather Yulara

    Today, 7 June, Sunday

    Time Temperature Precipitation Wind Pressure Humidity
    00:00 +7°C° 0 mm 5 mps 722 mmHg 38%
    01:00 +7°C° 0 mm 5 mps 722 mmHg 40%
    02:00 +6°C° 0 mm 5 mps 722 mmHg 42%
    03:00 +6°C° 0 mm 5 mps 722 mmHg 44%
    04:00 +6°C° 0 mm 5 mps 722 mmHg 48%
    05:00 +5°C° 0 mm 5 mps 722 mmHg 52%
    06:00 +5°C° 0 mm 5 mps 722 mmHg 56%
    07:00 +6°C° 0 mm 5 mps 722 mmHg 57%
    08:00 +8°C° 0 mm 6 mps 722 mmHg 58%
    09:00 +10°C° 0 mm 7 mps 723 mmHg 57%
    10:00 +12°C° 0 mm 7 mps 722 mmHg 48%
    11:00 +16°C° 0 mm 7 mps 722 mmHg 40%
    12:00 +18°C° 0 mm 7 mps 722 mmHg 32%
    13:00 +20°C° 0 mm 7 mps 721 mmHg 29%
    14:00 +20°C° 0 mm 6 mps 721 mmHg 27%
    15:00 +21°C° 0 mm 6 mps 720 mmHg 25%
    16:00 +19°C° 0 mm 6 mps 720 mmHg 29%
    17:00 +16°C° 0 mm 5 mps 721 mmHg 34%
    18:00 +14°C° 0 mm 4 mps 721 mmHg 39%
    19:00 +13°C° 0 mm 4 mps 721 mmHg 41%
    20:00 +12°C° 0 mm 5 mps 722 mmHg 44%
    21:00 +10°C° 0 mm 5 mps 722 mmHg 47%
    22:00 +9°C° 0 mm 5 mps 722 mmHg 51%
    23:00 +8°C° 0 mm 5 mps 722 mmHg 54%

    Tomorrow, 8 June, Monday

    Time Temperature Precipitation Wind Pressure Humidity
    00:00 +7°C° 0 mm 5 mps 722 mmHg 58%
    01:00 +6°C° 0 mm 5 mps 722 mmHg 61%
    02:00 +6°C° 0 mm 5 mps 722 mmHg 64%
    03:00 +5°C° 0 mm 5 mps 722 mmHg 66%
    04:00 +3°C° 0 mm 5 mps 722 mmHg 69%
    05:00 +3°C° 0 mm 5 mps 722 mmHg 71%
    06:00 +3°C° 0 mm 4 mps 722 mmHg 74%
    07:00 +5°C° 0 mm 5 mps 723 mmHg 67%
    08:00 +7°C° 0 mm 5 mps 723 mmHg 60%
    09:00 +9°C° 0 mm 6 mps 723 mmHg 53%
    10:00 +11°C° 0 mm 6 mps 723 mmHg 46%
    11:00 +14°C° 0 mm 6 mps 723 mmHg 38%
    12:00 +16°C° 0 mm 6 mps 723 mmHg 31%
    13:00 +17°C° 0 mm 6 mps 722 mmHg 28%
    14:00 +19°C° 0 mm 5 mps 722 mmHg 25%
    15:00 +20°C° 0 mm 5 mps 721 mmHg 22%
    16:00 +17°C° 0 mm 5 mps 721 mmHg 26%
    17:00 +15°C° 0 mm 5 mps 721 mmHg 30%
    18:00 +13°C° 0 mm 4 mps 721 mmHg 34%
    19:00 +12°C° 0 mm 4 mps 722 mmHg 36%
    20:00 +11°C° 0 mm 4 mps 722 mmHg 39%
    21:00 +9°C° 0 mm 5 mps 722 mmHg 42%
    22:00 +8°C° 0 mm 4 mps 723 mmHg 44%
    23:00 +8°C° 0 mm 4 mps 723 mmHg 46%

    Day after tomorrow, 9 June, Tuesday

    Time Temperature Precipitation Wind Pressure Humidity
    00:00 +7°C° 0 mm 4 mps 723 mmHg 49%
    01:00 +6°C° 0 mm 4 mps 723 mmHg 51%
    02:00 +6°C° 0 mm 4 mps 723 mmHg 54%
    03:00 +5°C° 0 mm 4 mps 723 mmHg 56%
    04:00 +5°C° 0 mm 4 mps 723 mmHg 58%
    05:00 +5°C° 0 mm 4 mps 723 mmHg 60%
    06:00 +4°C° 0 mm 4 mps 723 mmHg 62%
    07:00 +6°C° 0 mm 4 mps 724 mmHg 56%
    08:00 +8°C° 0 mm 4 mps 724 mmHg 50%
    09:00 +10°C° 0 mm 5 mps 724 mmHg 44%
    10:00 +13°C° 0 mm 5 mps 724 mmHg 38%
    11:00 +17°C° 0 mm 4 mps 723 mmHg 33%
    12:00 +19°C° 0 mm 4 mps 723 mmHg 28%
    13:00 +20°C° 0 mm 3 mps 723 mmHg 26%
    14:00 +21°C° 0 mm 3 mps 722 mmHg 24%
    15:00 +23°C° 0 mm 2 mps 722 mmHg 23%
    16:00 +19°C° 0 mm 2 mps 722 mmHg 27%
    17:00 +17°C° 0 mm 2 mps 722 mmHg 31%
    18:00 +13°C° 0 mm 3 mps 722 mmHg 35%
    19:00 +13°C° 0 mm 3 mps 722 mmHg 36%
    20:00 +12°C° 0 mm 3 mps 722 mmHg 38%
    21:00 +12°C° 0 mm 4 mps 723 mmHg 39%
    22:00 +11°C° 0 mm 3 mps 723 mmHg 42%
    23:00 +10°C° 0 mm 3 mps 723 mmHg 44%

    10 June, Wednesday

    Time Temperature Precipitation Wind Pressure Humidity
    00:00 +9°C° 0 mm 3 mps 723 mmHg 47%
    01:00 +8°C° 0 mm 3 mps 723 mmHg 50%
    02:00 +8°C° 0 mm 3 mps 722 mmHg 53%
    03:00 +7°C° 0 mm 3 mps 722 mmHg 55%
    04:00 +7°C° 0 mm 3 mps 722 mmHg 59%
    05:00 +5°C° 0 mm 3 mps 723 mmHg 63%
    06:00 +5°C° 0 mm 3 mps 723 mmHg 66%
    07:00 +8°C° 0 mm 3 mps 723 mmHg 61%
    08:00 +10°C° 0 mm 3 mps 723 mmHg 55%
    09:00 +12°C° 0 mm 3 mps 724 mmHg 49%
    10:00 +14°C° 0 mm 3 mps 723 mmHg 43%
    11:00 +18°C° 0 mm 3 mps 723 mmHg 36%
    12:00 +20°C° 0 mm 3 mps 723 mmHg 30%
    13:00 +21°C° 0 mm 2 mps 722 mmHg 27%
    14:00 +21°C° 0 mm 2 mps 722 mmHg 25%
    15:00 +23°C° 0 mm 1 mps 721 mmHg 22%
    16:00 +20°C° 0 mm 2 mps 721 mmHg 25%
    17:00 +18°C° 0 mm 2 mps 721 mmHg 29%
    18:00 +16°C° 0 mm 3 mps 721 mmHg 32%
    19:00 +14°C° 0 mm 3 mps 721 mmHg 34%
    20:00 +13°C° 0 mm 3 mps 722 mmHg 36%
    21:00 +12°C° 0 mm 4 mps 722 mmHg 37%
    22:00 +11°C° 0 mm 3 mps 722 mmHg 41%
    23:00 +10°C° 0 mm 3 mps 722 mmHg 45%

    11 June, Thursday

    Time Temperature Precipitation Wind Pressure Humidity
    00:00 +9°C° 0 mm 3 mps 722 mmHg 49%
    01:00 +9°C° 0 mm 3 mps 721 mmHg 51%
    02:00 +8°C° 0 mm 3 mps 721 mmHg 53%
    03:00 +7°C° 0 mm 3 mps 721 mmHg 56%
    04:00 +7°C° 0 mm 3 mps 721 mmHg 58%
    05:00 +7°C° 0 mm 3 mps 721 mmHg 61%
    06:00 +5°C° 0 mm 3 mps 721 mmHg 64%
    07:00 +8°C° 0 mm 3 mps 722 mmHg 58%
    08:00 +10°C° 0 mm 3 mps 722 mmHg 53%
    09:00 +12°C° 0 mm 4 mps 723 mmHg 47%
    10:00 +15°C° 0 mm 4 mps 722 mmHg 41%
    11:00 +18°C° 0 mm 4 mps 722 mmHg 35%
    12:00 +20°C° 0 mm 3 mps 721 mmHg 29%
    13:00 +21°C° 0 mm 3 mps 721 mmHg 27%
    14:00 +23°C° 0 mm 2 mps 720 mmHg 25%
    15:00 +23°C° 0 mm 1 mps 720 mmHg 23%
    16:00 +21°C° 0 mm 1 mps 719 mmHg 27%
    17:00 +17°C° 0 mm 2 mps 719 mmHg 30%
    18:00 +14°C° 0 mm 3 mps 719 mmHg 34%
    19:00 +13°C° 0 mm 3 mps 719 mmHg 36%
    20:00 +12°C° 0 mm 3 mps 719 mmHg 38%
    21:00 +11°C° 0 mm 3 mps 720 mmHg 40%
    22:00 +11°C° 0 mm 3 mps 720 mmHg 43%
    23:00 +10°C° 0 mm 3 mps 720 mmHg 46%

    12 June, Friday

    Time Temperature Precipitation Wind Pressure Humidity
    00:00 +9°C° 0 mm 3 mps 720 mmHg 49%
    01:00 +9°C° 0 mm 3 mps 719 mmHg 51%
    02:00 +8°C° 0 mm 3 mps 719 mmHg 54%
    03:00 +8°C° 0 mm 3 mps 719 mmHg 56%
    04:00 +7°C° 0 mm 3 mps 719 mmHg 59%
    05:00 +7°C° 0 mm 3 mps 719 mmHg 62%
    06:00 +7°C° 0 mm 2 mps 719 mmHg 65%
    07:00 +9°C° 0 mm 2 mps 720 mmHg 57%
    08:00 +12°C° 0 mm 2 mps 720 mmHg 50%
    09:00 +14°C° 0 mm 2 mps 720 mmHg 42%
    10:00 +16°C° 0 mm 3 mps 720 mmHg 37%
    11:00 +19°C° 0 mm 3 mps 719 mmHg 31%
    12:00 +21°C° 0 mm 3 mps 719 mmHg 25%
    13:00 +22°C° 0 mm 3 mps 718 mmHg 24%
    14:00 +24°C° 0 mm 3 mps 718 mmHg 23%
    15:00 +25°C° 0 mm 3 mps 717 mmHg 21%
    16:00 +20°C° 0 mm 3 mps 716 mmHg 31%
    17:00 +17°C° 0 mm 2 mps 716 mmHg 41%
    18:00 +14°C° 0 mm 1 mps 716 mmHg 51%
    19:00 +13°C° 0 mm 1 mps 716 mmHg 55%
    20:00 +12°C° 0 mm 1 mps 716 mmHg 58%
    21:00 +10°C° 0 mm 0 mps 716 mmHg 61%
    22:00 +12°C° 0 mm 1 mps 716 mmHg 55%
    23:00 +12°C° 0 mm 2 mps 716 mmHg 49%
    Show more